Date,TemperatureHighF,TemperatureAvgF,TemperatureLowF,DewpointHighF,DewpointAvgF,DewpointLowF,HumidityHigh,HumidityAvg,HumidityLow,PressureMaxIn,PressureMinIn,WindSpeedMaxMPH,WindSpeedAvgMPH,GustSpeedMaxMPH,PrecipitationSumIn
2013-1-1,34,27,19,23,-15,-100,90,47,49,30.31,30.11,21,-258,27,0.00
2013-1-2,26,22,17,22,16,12,86,78,58,30.40,30.23,23,13,34,0.00
2013-1-3,52,29,14,20,9,2,81,44,20,30.43,30.25,13,4,18,0.00
2013-1-4,66,38,26,17,8,-2,48,31,10,30.31,30.10,11,3,16,0.00
2013-1-5,38,33,30,20,17,14,63,51,41,30.38,30.27,23,10,29,0.00
2013-1-6,54,39,25,19,10,1,50,31,13,30.38,29.95,18,4,25,0.00
2013-1-7,45,34,25,24,19,16,73,54,36,30.19,29.89,11,4,17,0.00
2013-1-8,43,36,26,28,22,14,78,57,39,30.22,29.88,21,9,33,0.00
2013-1-9,64,50,32,29,18,4,49,30,12,30.25,29.97,24,7,38,0.04
2013-1-10,132,54,31,100,10,1,70,19,10,29.98,29.61,25,9,40,6.17
2013-1-11,11,6,2,7,0,-4,84,76,67,29.96,29.68,24,15,36,0.00
2013-1-12,2,1,1,-3,-4,-5,80,78,76,30.14,29.96,21,13,32,0.00
2013-1-13,16,10,6,4,1,-3,76,68,49,30.25,30.09,14,8,21,0.00
2013-1-17,46,43,37,-100,-100,-100,0,0,100,0.00,40.00,0,-999,0,0.00
2013-1-18,51,46,41,-100,-100,-100,0,0,100,0.00,40.00,0,-999,0,0.00
2013-1-19,42,34,22,-100,-100,-100,0,0,100,0.00,40.00,0,-999,0,0.00
2013-1-20,26,18,10,-100,-100,-100,0,0,100,0.00,40.00,0,-999,0,0.00
2013-1-21,27,16,11,-100,-100,-100,0,0,100,0.00,40.00,0,-999,0,0.00
2013-1-22,44,30,12,-100,-100,-100,0,0,100,0.00,40.00,0,-999,0,0.00
2013-1-23,31,20,13,-100,-100,-100,0,0,100,0.00,40.00,0,-999,0,0.00
2013-1-24,51,29,11,-100,-100,-100,0,0,100,0.00,40.00,0,-999,0,0.00
2013-1-25,50,38,27,-100,-100,-100,0,0,100,0.00,40.00,0,-999,0,0.00
2013-1-26,51,40,33,-100,-100,-100,0,0,100,0.00,40.00,0,-999,0,0.00
2013-1-27,44,37,30,-100,-100,-100,0,0,100,0.00,40.00,0,-999,0,0.00
2013-1-28,39,30,24,-100,-100,-100,0,0,100,0.00,40.00,0,-999,0,0.00
2013-1-29,33,21,3,-100,-100,-100,0,0,100,0.00,40.00,0,-999,0,0.00
2013-1-30,30,15,-2,-100,-100,-100,0,0,100,0.00,40.00,0,-999,0,0.00
2013-1-31,32,15,3,-100,-100,-100,0,0,100,0.00,40.00,0,-999,0,0.00
2013-2-1,43,36,33,-100,-100,-100,0,0,100,0.00,40.00,0,-999,0,0.00
2013-2-2,43,35,31,-100,-100,-100,0,0,100,0.00,40.00,0,-999,0,0.00
2013-2-3,50,40,31,-100,-100,-100,0,0,100,0.00,40.00,0,-999,0,0.00
2013-2-4,45,38,27,-100,-100,-100,0,0,100,0.00,40.00,0,-999,0,0.00
2013-2-5,49,39,32,-100,-100,-100,0,0,100,0.00,40.00,0,-999,0,0.00
2013-2-6,47,39,32,-100,-100,-100,0,0,100,0.00,40.00,0,-999,0,0.00
2013-2-7,45,36,30,-100,-100,-100,0,0,100,0.00,40.00,0,-999,0,0.00
2013-2-8,46,35,28,-100,-100,-100,0,0,100,0.00,40.00,0,-999,0,0.00
2013-2-9,41,31,24,-100,-100,-100,0,0,100,0.00,40.00,0,-999,0,0.00
2013-2-10,30,25,18,-100,-100,-100,0,0,100,0.00,40.00,0,-999,0,0.00
2013-2-11,30,24,15,-100,-100,-100,0,0,100,0.00,40.00,0,-999,0,0.00
2013-2-12,38,33,24,-100,-100,-100,0,0,100,0.00,40.00,0,-999,0,0.00
2013-2-13,44,36,29,-100,-100,-100,0,0,100,0.00,40.00,0,-999,0,0.00
2013-2-14,30,25,18,-100,-100,-100,0,0,100,0.00,40.00,0,-999,0,0.00
2013-2-15,37,26,18,-100,-100,-100,0,0,100,0.00,40.00,0,-999,0,0.00
2013-2-16,47,41,36,-100,-100,-100,0,0,100,0.00,40.00,0,-999,0,0.00
2013-2-17,49,38,29,-100,-100,-100,0,0,100,0.00,40.00,0,-999,0,0.00
2013-2-18,30,24,15,-100,-100,-100,0,0,100,0.00,40.00,0,-999,0,0.00
2013-2-19,30,19,7,-100,-100,-100,0,0,100,0.00,40.00,0,-999,0,0.00
2013-2-20,33,22,11,-100,-100,-100,0,0,100,0.00,40.00,0,-999,0,0.00
2013-2-21,34,24,20,-100,-100,-100,0,0,100,0.00,40.00,0,-999,0,0.00
2013-2-22,39,28,18,-100,-100,-100,0,0,100,0.00,40.00,0,-999,0,0.00
2013-2-23,48,34,19,-100,-100,-100,0,0,100,0.00,40.00,0,-999,0,0.00
2013-2-24,35,28,22,-100,-100,-100,0,0,100,0.00,40.00,0,-999,0,0.00
2013-2-25,41,30,13,-100,-100,-100,0,0,100,0.00,40.00,0,-999,0,0.00
2013-2-26,36,30,24,-100,-100,-100,0,0,100,0.00,40.00,0,-999,0,0.00
2013-2-27,41,30,20,-100,-100,-100,0,0,100,0.00,40.00,0,-999,0,0.00
2013-2-28,43,30,17,-100,-100,-100,0,0,100,0.00,40.00,0,-999,0,0.00
2013-3-1,45,37,27,-100,-100,-100,0,0,100,0.00,40.00,0,-999,0,0.00
2013-3-2,55,48,41,-100,-100,-100,0,0,100,0.00,40.00,0,-999,0,0.00
2013-3-3,58,45,28,-100,-100,-100,0,0,100,0.00,40.00,0,-999,0,0.00
2013-3-4,29,22,16,-100,-100,-100,0,0,100,0.00,40.00,0,-999,0,0.00
2013-3-5,30,19,11,-100,-100,-100,0,0,100,0.00,40.00,0,-999,0,0.00
2013-3-6,45,27,12,-100,-100,-100,0,0,100,0.00,40.00,0,-999,0,0.00
2013-3-7,52,41,28,-100,-100,-100,0,0,100,0.00,40.00,0,-999,0,0.00
2013-3-8,46,34,26,-100,-100,-100,0,0,100,0.00,40.00,0,-999,0,0.00
2013-3-9,40,31,24,-100,-100,-100,0,0,100,0.00,40.00,0,-999,0,0.00
2013-3-10,41,30,18,-100,-100,-100,0,0,100,0.00,40.00,0,-999,0,0.00
2013-3-11,43,36,25,-100,-100,-100,0,0,100,0.00,40.00,0,-999,0,0.00
2013-3-12,37,28,20,-100,-100,-100,0,0,100,0.00,40.00,0,-999,0,0.00
2013-3-13,61,48,30,-100,-100,-100,0,0,100,0.00,40.00,0,-999,0,0.00
2013-3-14,67,54,41,-100,-100,-100,0,0,100,0.00,40.00,0,-999,0,0.00
2013-3-15,66,52,30,-100,-100,-100,0,0,100,0.00,40.00,0,-999,0,0.00
2013-3-16,46,33,28,-100,-100,-100,0,0,100,0.00,40.00,0,-999,0,0.00
2013-3-17,53,32,23,-100,-100,-100,0,0,100,0.00,40.00,0,-999,0,0.00
2013-3-18,36,26,12,-100,-100,-100,0,0,100,0.00,40.00,0,-999,0,0.00
2013-3-19,36,28,19,-100,-100,-100,0,0,100,0.00,40.00,0,-999,0,0.00
2013-3-20,54,35,15,-100,-100,-100,0,0,100,0.00,40.00,0,-999,0,0.00
2013-3-21,44,29,18,-100,-100,-100,0,0,100,0.00,40.00,0,-999,0,0.00
2013-3-22,51,30,17,-100,-100,-100,0,0,100,0.00,40.00,0,-999,0,0.00
2013-3-23,36,20,10,-100,-100,-100,0,0,100,0.00,40.00,0,-999,0,0.00
2013-3-24,31,18,10,-100,-100,-100,0,0,100,0.00,40.00,0,-999,0,0.00
2013-3-25,41,22,8,-100,-100,-100,0,0,100,0.00,40.00,0,-999,0,0.00
2013-3-26,51,34,18,-100,-100,-100,0,0,100,0.00,40.00,0,-999,0,0.00
2013-3-27,60,41,24,-100,-100,-100,0,0,100,0.00,40.00,0,-999,0,0.00
2013-3-28,62,48,33,-100,-100,-100,0,0,100,0.00,40.00,0,-999,0,0.00
2013-3-29,70,54,41,-100,-100,-100,0,0,100,0.00,40.00,0,-999,0,0.00
2013-3-30,58,45,35,-100,-100,-100,0,0,100,0.00,40.00,0,-999,0,0.00
2013-3-31,58,41,27,-100,-100,-100,0,0,100,0.00,40.00,0,-999,0,0.00
2013-4-1,53,38,27,-100,-100,-100,0,0,100,0.00,40.00,0,-999,0,0.00
2013-4-2,62,45,31,-100,-100,-100,0,0,100,0.00,40.00,0,-999,0,0.00
2013-4-3,67,54,37,-100,-100,-100,0,0,100,0.00,40.00,0,-999,0,0.00
2013-4-4,54,44,31,-100,-100,-100,0,0,100,0.00,40.00,0,-999,0,0.00
2013-4-5,64,48,33,-100,-100,-100,0,0,100,0.00,40.00,0,-999,0,0.00
2013-4-6,62,52,43,-100,-100,-100,0,0,100,0.00,40.00,0,-999,0,0.00
2013-4-7,44,43,42,-100,-100,-100,0,0,100,0.00,40.00,0,-999,0,0.00
2013-4-13,34,32,31,-100,-100,-100,0,0,100,0.00,40.00,0,-999,0,0.00
2013-4-14,31,31,31,-100,-100,-100,0,0,100,0.00,40.00,0,-999,0,0.00
2013-4-15,46,31,17,-100,-100,-100,0,0,100,0.00,40.00,0,-999,0,0.00
2013-4-16,47,28,18,-100,-100,-100,0,0,100,0.00,40.00,0,-999,0,0.00
2013-4-17,48,31,23,-100,-100,-100,0,0,100,0.00,40.00,0,-999,0,0.00
2013-4-18,40,29,20,-100,-100,-100,0,0,100,0.00,40.00,0,-999,0,0.00
2013-4-19,58,38,32,-100,-100,-100,0,0,100,0.00,40.00,0,-999,0,0.00
2013-4-20,61,43,31,-100,-100,-100,0,0,100,0.00,40.00,0,-999,0,0.00
2013-4-21,49,38,29,-100,-100,-100,59,0,59,30.02,30.02,4,-996,7,0.00
2013-4-22,51,30,20,-100,-100,-100,0,0,100,0.00,40.00,0,-999,0,0.00
2013-4-23,36,28,17,-100,-100,-100,0,0,100,0.00,40.00,0,-999,0,0.00
2013-4-24,48,37,31,-100,-100,-100,0,0,100,0.00,40.00,0,-999,0,0.00
2013-4-25,74,50,29,-100,-100,-100,0,0,100,0.00,40.00,0,-999,0,0.00
2013-4-26,76,55,39,-100,-100,-100,0,0,100,0.00,40.00,0,-999,0,0.00
2013-4-27,75,62,48,-100,-100,-100,0,0,100,0.00,40.00,0,-999,0,0.00
2013-4-28,72,57,42,-100,-100,-100,0,0,100,0.00,40.00,0,-999,0,0.00
2013-4-29,74,56,41,-100,-100,-100,0,0,100,0.00,40.00,0,-999,0,0.00
2013-4-30,58,44,30,-100,-100,-100,0,0,100,0.00,40.00,0,-999,0,0.00
2013-5-1,49,37,26,-100,-100,-100,0,0,100,0.00,40.00,0,-999,0,0.00
2013-5-2,60,44,28,-100,-100,-100,0,0,100,0.00,40.00,0,-999,0,0.00
2013-5-3,69,49,33,-100,-100,-100,0,0,100,0.00,40.00,0,-999,0,0.00
2013-5-4,63,49,36,-100,-100,-100,0,0,100,0.00,40.00,0,-999,0,0.00
2013-5-5,67,50,34,-100,-100,-100,0,0,100,0.00,40.00,0,-999,0,0.00
2013-5-6,70,55,39,-100,-100,-100,0,0,100,0.00,40.00,0,-999,0,0.00
2013-5-7,80,63,42,-100,-100,-100,0,0,100,0.00,40.00,0,-999,0,0.00
2013-5-8,79,62,47,-100,-100,-100,0,0,100,0.00,40.00,0,-999,0,0.00
2013-5-9,65,51,39,-100,-100,-100,0,0,100,0.00,40.00,0,-999,0,0.00
2013-5-10,77,58,43,-100,-100,-100,0,0,100,0.00,40.00,0,-999,0,0.00
2013-5-11,67,52,36,-100,-100,-100,0,0,100,0.00,40.00,0,-999,0,0.00
2013-5-12,81,66,45,-100,-100,-100,0,0,100,0.00,40.00,0,-999,0,0.00
2013-5-13,92,77,65,-100,-100,-100,0,0,100,0.00,40.00,0,-999,0,0.00
2013-5-14,82,71,56,-100,-100,-100,0,0,100,0.00,40.00,0,-999,0,0.00
2013-5-15,76,66,47,-100,-100,-100,0,0,100,0.00,40.00,0,-999,0,0.00
2013-5-16,80,65,55,-100,-100,-100,0,0,100,0.00,40.00,0,-999,0,0.00
2013-5-17,81,62,49,-100,-100,-100,0,0,100,0.00,40.00,0,-999,0,0.00
2013-5-18,71,59,51,-100,-100,-100,0,0,100,0.00,40.00,0,-999,0,0.00
2013-5-19,57,52,47,-100,-100,-100,0,0,100,0.00,40.00,0,-999,0,0.00
2013-5-20,47,45,43,-100,-100,-100,0,0,100,0.00,40.00,0,-999,0,0.00
2013-5-21,47,43,41,-100,-100,-100,0,0,100,0.00,40.00,0,-999,0,0.00
2013-5-22,56,48,42,-100,-100,-100,0,0,100,0.00,40.00,0,-999,0,0.00
2013-5-23,68,58,47,-100,-100,-100,0,0,100,0.00,40.00,0,-999,0,0.00
2013-5-24,82,66,54,-100,-100,-100,0,0,100,0.00,40.00,0,-999,0,0.00
2013-5-25,80,66,49,-100,-100,-100,0,0,100,0.00,40.00,0,-999,0,0.00
2013-5-26,71,60,51,-100,-100,-100,0,0,100,0.00,40.00,0,-999,0,0.00
2013-5-27,81,57,48,-100,-100,-100,0,0,100,0.00,40.00,0,-999,0,0.00
2013-5-28,85,63,45,-100,-100,-100,0,0,100,0.00,40.00,0,-999,0,0.00
2013-5-29,71,57,51,-100,-100,-100,0,0,100,0.00,40.00,0,-999,0,0.00
2013-5-30,66,53,46,-100,-100,-100,0,0,100,0.00,40.00,0,-999,0,0.00
2013-5-31,48,46,44,-100,-100,-100,0,0,100,0.00,40.00,0,-999,0,0.00
2013-6-1,62,52,41,-100,-100,-100,0,0,100,0.00,40.00,0,-999,0,0.00
2013-6-2,72,59,41,-100,-100,-100,0,0,100,0.00,40.00,0,-999,0,0.00
2013-6-3,73,57,45,-100,-100,-100,0,0,100,0.00,40.00,0,-999,0,0.00
2013-6-5,63,52,45,-100,-100,-100,0,0,100,0.00,40.00,0,-999,0,0.00
2013-6-6,80,61,42,-100,-100,-100,0,0,100,0.00,40.00,0,-999,0,0.00
2013-6-7,84,68,52,-100,-100,-100,0,0,100,0.00,40.00,0,-999,0,0.00
2013-6-8,72,62,52,-100,-100,-100,0,0,100,0.00,40.00,0,-999,0,0.00
2013-6-9,84,67,48,-100,-100,-100,0,0,100,0.00,40.00,0,-999,0,0.00
2013-6-10,89,72,55,-100,-100,-100,0,0,100,0.00,40.00,0,-999,0,0.00
2013-6-11,87,68,52,-100,-100,-100,0,0,100,0.00,40.00,0,-999,0,0.00
2013-6-12,69,59,51,-100,-100,-100,0,0,100,0.00,40.00,0,-999,0,0.00
2013-6-13,84,71,53,-100,-100,-100,0,0,100,0.00,40.00,0,-999,0,0.00
2013-6-14,79,69,57,-100,-100,-100,0,0,100,0.00,40.00,0,-999,0,0.00
2013-6-15,81,68,57,-100,-100,-100,0,0,100,0.00,40.00,0,-999,0,0.00
2013-6-16,88,70,55,-100,-100,-100,0,0,100,0.00,40.00,0,-999,0,0.00
2013-6-17,82,68,57,-100,-100,-100,0,0,100,0.00,40.00,0,-999,0,0.00
2013-6-18,87,71,53,-100,-100,-100,0,0,100,0.00,40.00,0,-999,0,0.00
2013-6-19,93,78,60,-100,-100,-100,0,0,100,0.00,40.00,0,-999,0,0.00
2013-6-20,84,74,63,-100,-100,-100,0,0,100,0.00,40.00,0,-999,0,0.00
2013-6-21,66,61,58,-100,-100,-100,0,0,100,0.00,40.00,0,-999,0,0.00
2013-6-22,78,62,50,-100,-100,-100,0,0,100,0.00,40.00,0,-999,0,0.00
2013-6-23,78,65,50,-100,-100,-100,0,0,100,0.00,40.00,0,-999,0,0.00
2013-6-24,92,72,55,-100,-100,-100,0,0,100,0.00,40.00,0,-999,0,0.00
2013-6-25,88,74,63,-100,-100,-100,0,0,100,0.00,40.00,0,-999,0,0.00
2013-6-26,94,75,59,-100,-100,-100,0,0,100,0.00,40.00,0,-999,0,0.00
2013-6-27,94,77,62,-100,-100,-100,0,0,100,0.00,40.00,0,-999,0,0.00
2013-6-28,91,74,58,-100,-100,-100,0,0,100,0.00,40.00,0,-999,0,0.00
2013-6-29,89,72,58,-100,-100,-100,0,0,100,0.00,40.00,0,-999,0,0.00
2013-6-30,89,72,56,-100,-100,-100,0,0,100,0.00,40.00,0,-999,0,0.00
2013-7-1,89,73,56,-100,-100,-100,0,0,100,0.00,40.00,0,-999,0,0.00
2013-7-2,92,75,60,-100,-100,-100,0,0,100,0.00,40.00,0,-999,0,0.00
2013-7-3,95,78,62,-100,-100,-100,0,0,100,0.00,40.00,0,-999,0,0.00
2013-7-4,83,73,66,-100,-100,-100,0,0,100,0.00,40.00,0,-999,0,0.00
2013-7-5,84,72,65,-100,-100,-100,0,0,100,0.00,40.00,0,-999,0,0.00
2013-7-6,92,76,61,-100,-100,-100,0,0,100,0.00,40.00,0,-999,0,0.00
2013-7-7,87,73,64,-100,-100,-100,0,0,100,0.00,40.00,0,-999,0,0.00
2013-7-8,87,73,60,-100,-100,-100,0,0,100,0.00,40.00,0,-999,0,0.00
2013-7-9,89,72,57,-100,-100,-100,0,0,100,0.00,40.00,0,-999,0,0.00
2013-7-10,91,77,58,-100,-100,-100,0,0,100,0.00,40.00,0,-999,0,0.00
2013-7-11,101,86,68,-100,-100,-100,0,0,100,0.00,40.00,0,-999,0,0.00
2013-7-12,90,79,69,-100,-100,-100,0,0,100,0.00,40.00,0,-999,0,0.00
2013-7-13,93,78,64,-100,-100,-100,0,0,100,0.00,40.00,0,-999,0,0.00
2013-7-14,79,65,59,-100,-100,-100,0,0,100,0.00,40.00,0,-999,0,0.00
2013-7-15,90,77,58,-100,-100,-100,0,0,100,0.00,40.00,0,-999,0,0.00
2013-7-16,96,81,70,-100,-100,-100,0,0,100,0.00,40.00,0,-999,0,0.00
2013-7-17,94,79,63,-100,-100,-100,0,0,100,0.00,40.00,0,-999,0,0.00
2013-7-18,95,81,66,-100,-100,-100,0,0,100,0.00,40.00,0,-999,0,0.00
2013-7-19,86,76,65,-100,-100,-100,0,0,100,0.00,40.00,0,-999,0,0.00
2013-7-20,91,75,63,-100,-100,-100,0,0,100,0.00,40.00,0,-999,0,0.00
2013-7-21,94,80,63,-100,-100,-100,0,0,100,0.00,40.00,0,-999,0,0.00
2013-7-22,94,75,62,-100,-100,-100,0,0,100,0.00,40.00,0,-999,0,0.00
2013-7-23,87,73,58,-100,-100,-100,0,0,100,0.00,40.00,0,-999,0,0.00
2013-7-24,91,76,62,-100,-100,-100,0,0,100,0.00,40.00,0,-999,0,0.00
2013-7-25,84,71,58,-100,-100,-100,0,0,100,0.00,40.00,0,-999,0,0.00
2013-7-26,71,62,52,-100,-100,-100,0,0,100,0.00,40.00,0,-999,0,0.00
2013-7-27,78,66,51,-100,-100,-100,0,0,100,0.00,40.00,0,-999,0,0.00
2013-7-28,84,71,57,-100,-100,-100,0,0,100,0.00,40.00,0,-999,0,0.00
2013-7-29,89,72,58,-100,-100,-100,0,0,100,0.00,40.00,0,-999,0,0.00
2013-7-30,89,72,58,-100,-100,-100,0,0,100,0.00,40.00,0,-999,0,0.00
2013-7-31,86,72,59,-100,-100,-100,0,0,100,0.00,40.00,0,-999,0,0.00
2013-8-1,77,68,59,-100,-100,-100,0,0,100,0.00,40.00,0,-999,0,0.00
2013-8-2,79,67,55,-100,-100,-100,0,0,100,0.00,40.00,0,-999,0,0.00
2013-8-3,83,70,58,-100,-100,-100,0,0,100,0.00,40.00,0,-999,0,0.00
2013-8-4,87,73,61,-100,-100,-100,0,0,100,0.00,40.00,0,-999,0,0.00
2013-8-5,87,73,61,-100,-100,-100,0,0,100,0.00,40.00,0,-999,0,0.00
2013-8-6,83,70,60,-100,-100,-100,0,0,100,0.00,40.00,0,-999,0,0.00
2013-8-7,87,71,58,-100,-100,-100,0,0,100,0.00,40.00,0,-999,0,0.00
2013-8-8,86,69,54,-100,-100,-100,0,0,100,0.00,40.00,0,-999,0,0.00
2013-8-9,81,68,57,-100,-100,-100,0,0,100,0.00,40.00,0,-999,0,0.00
2013-8-10,81,70,60,-100,-100,-100,0,0,100,0.00,40.00,0,-999,0,0.00
2013-8-11,86,70,59,-100,-100,-100,0,0,100,0.00,40.00,0,-999,0,0.00
2013-8-12,81,70,59,-100,-100,-100,0,0,100,0.00,40.00,0,-999,0,0.00
2013-8-13,83,66,56,-100,-100,-100,0,0,100,0.00,40.00,0,-999,0,0.00
2013-8-14,82,67,54,-100,-100,-100,0,0,100,0.00,40.00,0,-999,0,0.00
2013-8-15,85,69,57,-100,-100,-100,0,0,100,0.00,40.00,0,-999,0,0.00
2013-8-16,88,73,58,-100,-100,-100,0,0,100,0.00,40.00,0,-999,0,0.00
2013-8-17,94,79,63,-100,-100,-100,0,0,100,0.00,40.00,0,-999,0,0.00
2013-8-18,88,75,66,-100,-100,-100,0,0,100,0.00,40.00,0,-999,0,0.00
2013-8-19,88,77,71,-100,-100,-100,0,0,100,0.00,40.00,0,-999,0,0.00
2013-8-20,93,77,68,-100,-100,-100,0,0,100,0.00,40.00,0,-999,0,0.00
2013-8-21,88,75,62,-100,-100,-100,0,0,100,0.00,40.00,0,-999,0,0.00
2013-8-22,84,74,61,-100,-100,-100,0,0,100,0.00,40.00,0,-999,0,0.00
2013-8-23,90,78,63,-100,-100,-100,0,0,100,0.00,40.00,0,-999,0,0.00
2013-8-24,92,81,69,-100,-100,-100,0,0,100,0.00,40.00,0,-999,0,0.00
2013-8-25,90,75,66,-100,-100,-100,0,0,100,0.00,40.00,0,-999,0,0.00
2013-8-27,98,83,68,-100,-100,-100,0,0,100,0.00,40.00,0,-999,0,0.00
2013-12-15,52,47,42,26,24,20,54,40,32,29.81,29.70,23,13,32,0.00
2013-12-16,48,38,32,29,26,21,81,62,35,29.97,29.75,18,7,29,0.00
2013-12-17,57,42,23,29,22,16,88,51,22,30.06,29.65,20,7,27,0.00
2013-12-18,60,47,26,26,22,17,93,41,20,29.65,29.57,16,7,25,0.00
2013-12-19,32,5,-3,2,-4,-9,84,83,82,1006.70,40.00,4,1,6,0.00
2013-12-20,24,10,-2,6,0,-8,85,70,43,0.00,40.00,1,0,2,0.00
2013-12-21,28,18,12,16,9,3,90,69,48,29.93,29.65,10,2,17,0.00
2013-12-22,17,9,1,13,5,-3,90,83,68,30.22,29.93,9,4,15,0.00
2013-12-23,46,14,-5,30,4,-11,81,65,45,30.23,29.88,11,2,15,0.00
2013-12-24,46,35,20,32,29,13,92,79,50,30.01,29.82,32,7,52,0.06